Kelso, WA

2:49 AM PDT on September 25, 2016 (GMT -0700)
Kelso-Longview

Weather History for KKLS - May, 2012

Change the Weather History Date:

Friday, May 25, 2012

  Actual Average Record
Temperature  
Mean Temperature 58 °F -  
Max Temperature 71 °F 64 °F 84 °F (2005)
Min Temperature 44 °F 46 °F 42 °F (2000)
Degree Days  
Heating Degree Days 8    
Growing Degree Days 8 (Base 50)    
Moisture  
Dew Point 47 °F    
Average Humidity 73    
Maximum Humidity 94    
Minimum Humidity 38    
Precipitation  
Precipitation 0.02 in - - ()
Sea Level Pressure  
Sea Level Pressure 29.87 in    
Wind  
Wind Speed 5 mph (NNW)    
Max Wind Speed 14 mph    
Max Gust Speed 22 mph    
Visibility 10 miles    
Events Thunderstorm    
Averages and records for this station are not official NWS values.
T = Trace of Precipitation, MM = Missing Value Source: NWS Daily Summary

Daily Weather History Graph

Daily Weather History Graph

Search for Another Location

Airport or City:

Trip Planner

Search our weather history database for the weather conditions in past years. The results will help you decide how hot, cold, wet, or windy it might be!

Date:

Astronomy

May. 25, 2012 Rise Set
Actual Time 5:28 AM PDT 8:49 PM PDT
Civil Twilight 4:51 AM PDT 9:26 PM PDT
Nautical Twilight 4:03 AM PDT 10:14 PM PDT
Astronomical Twilight 3:02 AM PDT 11:15 PM PDT
Moon 9:38 AM PDT No Moon Set
Length of Visible Light 16h 34m
Length of Day
15h 20m
Waxing Crescent, 20% of the Moon is Illuminated
May 25
Waxing Crescent
May 28
First Quarter
Jun 4
Full
Jun 11
Last Quarter
Jun 19
New

Hourly Weather History & Observations

Time (PDT) Temp. Windchill Dew Point Humidity Pressure Visibility Wind Dir Wind Speed Gust Speed Precip Events Conditions
12:15 AM 51.8 °F - 46.4 °F 82% 29.87 in 10.0 mi NW 3.5 mph - N/A   Overcast
12:35 AM 51.8 °F - 48.2 °F 88% 29.87 in 10.0 mi North 3.5 mph - N/A   Overcast
12:55 AM 51.8 °F - 46.4 °F 82% 29.88 in 10.0 mi Calm Calm - N/A   Overcast
1:15 AM 50.0 °F - 48.2 °F 94% 29.87 in 10.0 mi WNW 6.9 mph - N/A   Overcast
1:35 AM 50.0 °F - 46.4 °F 87% 29.87 in 10.0 mi NW 3.5 mph - N/A   Overcast
1:55 AM 50.0 °F - 46.4 °F 87% 29.86 in 10.0 mi NNW 6.9 mph - N/A   Overcast
2:15 AM 50.0 °F - 46.4 °F 87% 29.86 in 10.0 mi NNW 5.8 mph - N/A   Overcast
2:35 AM 48.2 °F - 46.4 °F 93% 29.86 in 10.0 mi NW 3.5 mph - N/A   Mostly Cloudy
2:55 AM 48.2 °F - 46.4 °F 93% 29.87 in 10.0 mi Calm Calm - N/A   Scattered Clouds
3:15 AM 48.2 °F - 46.4 °F 93% 29.86 in 10.0 mi NNW 5.8 mph - N/A   Partly Cloudy
3:35 AM 48.2 °F - 44.6 °F 87% 29.86 in 10.0 mi Calm Calm - N/A   Scattered Clouds
3:55 AM 46.4 °F 45.2 °F 44.6 °F 93% 29.86 in 10.0 mi WNW 3.5 mph - N/A   Partly Cloudy
4:15 AM 48.2 °F - 44.6 °F 87% 29.86 in 10.0 mi NNW 4.6 mph - N/A   Clear
4:35 AM 46.4 °F 44.3 °F 44.6 °F 93% 29.86 in 10.0 mi North 4.6 mph - N/A   Clear
4:55 AM 46.4 °F 44.3 °F 44.6 °F 93% 29.86 in 10.0 mi North 4.6 mph - N/A   Clear
5:15 AM 46.4 °F 44.3 °F 44.6 °F 93% 29.86 in 10.0 mi North 4.6 mph - N/A   Clear
5:35 AM 46.4 °F - 44.6 °F 93% 29.86 in 10.0 mi North - - N/A   Clear
5:55 AM 44.6 °F 43.1 °F 42.8 °F 93% 29.87 in 10.0 mi NNE 3.5 mph - N/A   Clear
6:15 AM 46.4 °F - 42.8 °F 87% 29.87 in 10.0 mi Calm Calm - N/A   Clear
6:35 AM 46.4 °F 45.2 °F 44.6 °F 93% 29.88 in 10.0 mi North 3.5 mph - N/A   Clear
6:55 AM 46.4 °F - 44.6 °F 93% 29.88 in 10.0 mi Calm Calm - N/A   Clear
7:15 AM 48.2 °F - 44.6 °F 87% 29.89 in 10.0 mi Calm Calm - N/A   Clear
7:35 AM 48.2 °F - 44.6 °F 87% 29.89 in 10.0 mi NNE 4.6 mph - N/A   Clear
7:55 AM 51.8 °F - 44.6 °F 76% 29.89 in 10.0 mi NNE 4.6 mph - N/A   Clear
8:15 AM 51.8 °F - 44.6 °F 76% 29.89 in 10.0 mi North 3.5 mph - N/A   Clear
8:35 AM 53.6 °F - 44.6 °F 72% 29.90 in 10.0 mi North 9.2 mph - N/A   Clear
8:55 AM 53.6 °F - 44.6 °F 72% 29.90 in 10.0 mi NNE 5.8 mph - N/A   Clear
9:15 AM 55.4 °F - 44.6 °F 67% 29.90 in 10.0 mi North 8.1 mph - N/A   Clear
9:35 AM 57.2 °F - 46.4 °F 67% 29.89 in 10.0 mi NNW 6.9 mph - N/A   Clear
9:55 AM 57.2 °F - 44.6 °F 63% 29.88 in 10.0 mi NNW 6.9 mph - N/A   Scattered Clouds
10:15 AM 57.2 °F - 46.4 °F 67% 29.88 in 10.0 mi North 9.2 mph 17.3 mph N/A   Mostly Cloudy
10:35 AM 57.2 °F - 46.4 °F 67% 29.89 in 10.0 mi North 10.4 mph - N/A   Mostly Cloudy
10:55 AM 59.0 °F - 46.4 °F 63% 29.88 in 10.0 mi North 9.2 mph - N/A   Mostly Cloudy
11:15 AM 60.8 °F - 46.4 °F 59% 29.88 in 10.0 mi NNW 10.4 mph 18.4 mph N/A   Overcast
11:35 AM 60.8 °F - 46.4 °F 59% 29.88 in 10.0 mi NNE 6.9 mph - N/A   Scattered Clouds
11:55 AM 62.6 °F - 48.2 °F 59% 29.87 in 10.0 mi NNW 10.4 mph - N/A   Scattered Clouds
12:15 PM 62.6 °F - 48.2 °F 59% 29.87 in 10.0 mi North 12.7 mph 17.3 mph N/A   Scattered Clouds
12:35 PM 64.4 °F - 48.2 °F 56% 29.87 in 10.0 mi North 10.4 mph - N/A   Clear
12:55 PM 64.4 °F - 48.2 °F 56% 29.87 in 10.0 mi NW 8.1 mph - N/A   Clear
1:15 PM 64.4 °F - 48.2 °F 56% 29.87 in 10.0 mi NNW 10.4 mph - N/A   Clear
1:35 PM 66.2 °F - 48.2 °F 52% 29.87 in 10.0 mi NNW 11.5 mph 17.3 mph N/A   Clear
1:55 PM 66.2 °F - 48.2 °F 52% 29.87 in 10.0 mi NNW 10.4 mph - N/A   Clear
2:15 PM 66.2 °F - 46.4 °F 49% 29.87 in 10.0 mi NNW 9.2 mph 16.1 mph N/A   Scattered Clouds
2:35 PM 68.0 °F - 46.4 °F 46% 29.87 in 10.0 mi North 9.2 mph 18.4 mph N/A   Partly Cloudy
2:55 PM 68.0 °F - 46.4 °F 46% 29.86 in 10.0 mi NW 11.5 mph 17.3 mph N/A   Clear
3:15 PM 66.2 °F - 46.4 °F 49% 29.84 in 10.0 mi North 12.7 mph 18.4 mph N/A   Clear
3:35 PM 69.8 °F - 46.4 °F 43% 29.84 in 10.0 mi North 10.4 mph 16.1 mph N/A   Clear
3:55 PM 71.6 °F - 46.4 °F 41% 29.84 in 10.0 mi North 11.5 mph 16.1 mph N/A   Clear
4:15 PM 71.6 °F - 46.4 °F 41% 29.83 in 10.0 mi NNW 8.1 mph - N/A   Clear
4:35 PM 71.6 °F - 44.6 °F 38% 29.83 in 10.0 mi NW 8.1 mph - N/A   Clear
4:55 PM 71.6 °F - 44.6 °F 38% 29.83 in 10.0 mi North 5.8 mph 17.3 mph N/A   Clear
5:15 PM 71.6 °F - 44.6 °F 38% 29.83 in 10.0 mi NNE 10.4 mph - N/A   Clear
5:35 PM 71.6 °F - 44.6 °F 38% 29.83 in 10.0 mi WNW 9.2 mph - N/A   Clear
5:55 PM 68.0 °F - 50.0 °F 52% 29.83 in 10.0 mi West 8.1 mph 20.7 mph N/A   Clear
6:15 PM 66.2 °F - 50.0 °F 56% 29.84 in 10.0 mi WNW 13.8 mph 21.9 mph N/A   Clear
6:35 PM 64.4 °F - 50.0 °F 59% 29.84 in 10.0 mi West 13.8 mph 21.9 mph N/A   Scattered Clouds
6:55 PM 64.4 °F - 48.2 °F 56% 29.86 in 10.0 mi Calm Calm - N/A   Overcast
7:15 PM 62.6 °F - 50.0 °F 63% 29.87 in 10.0 mi WNW 10.4 mph - N/A Thunderstorm Overcast
7:35 PM 60.8 °F - 53.6 °F 77% 29.88 in 10.0 mi Calm Calm - 0.02 in   Overcast
7:55 PM 59.0 °F - 55.4 °F 88% 29.89 in 10.0 mi NNE 4.6 mph - 0.02 in   Overcast
8:15 PM 59.0 °F - 53.6 °F 82% 29.88 in 10.0 mi NW 3.5 mph - N/A   Overcast
8:35 PM 57.2 °F - 50.0 °F 77% 29.88 in 10.0 mi SE 5.8 mph - N/A   Overcast
8:55 PM 57.2 °F - 51.8 °F 82% 29.89 in 10.0 mi SSE 5.8 mph - N/A   Mostly Cloudy
9:15 PM 55.4 °F - 51.8 °F 88% 29.89 in 10.0 mi Calm Calm - N/A   Clear
9:35 PM 53.6 °F - 51.8 °F 94% 29.89 in 10.0 mi Calm Calm - N/A   Clear
9:55 PM 53.6 °F - 50.0 °F 88% 29.90 in 10.0 mi Calm Calm - N/A   Clear
10:15 PM 53.6 °F - 50.0 °F 88% 29.90 in 10.0 mi Calm Calm - N/A   Clear
10:35 PM 51.8 °F - 48.2 °F 88% 29.90 in 10.0 mi Calm Calm - N/A   Partly Cloudy
10:55 PM 51.8 °F - 50.0 °F 94% 29.91 in 10.0 mi Calm Calm - N/A   Mostly Cloudy
11:15 PM 51.8 °F - 50.0 °F 94% 29.91 in 10.0 mi Calm Calm - N/A   Scattered Clouds
11:35 PM 51.8 °F - 50.0 °F 94% 29.91 in 10.0 mi Calm Calm - N/A   Partly Cloudy
11:55 PM 51.8 °F - 50.0 °F 94% 29.91 in 10.0 mi Calm Calm - N/A   Mostly Cloudy